| time (UTC) | temp F | wind direction | speed knots | gust knots | rain 1hr in | rain 24hr in | rain mn in | humidity % | barometer mb |
| 20260901054541 | 68 | 209 | 0.0 | 0.0 | 0.00 | 0.00 | 0.00 | 70 | 1007.2 |
| 20260901053040 | 69 | 209 | 0.0 | 0.0 | 0.00 | 0.00 | 0.00 | 68 | 1007.2 |
| 20260901051518 | 70 | 209 | 0.0 | 0.0 | 0.00 | 0.00 | 0.00 | 67 | 1007.2 |
| 20260901050016 | 71 | 209 | 0.0 | 3.5 | 0.00 | 0.00 | 0.00 | 65 | 1007.1 |
| 20260901044604 | 71 | 209 | 0.9 | 5.2 | 0.00 | 0.00 | 0.00 | 63 | 1007.0 |
| 20260901043113 | 72 | 209 | 0.0 | 0.0 | 0.00 | 0.00 | 0.00 | 59 | 1006.8 |
| 20260901041533 | 72 | 209 | 0.0 | 0.0 | 0.00 | 0.00 | 0.00 | 58 | 1006.6 |
| 20260901040030 | 73 | 209 | 0.0 | 0.0 | 0.00 | 0.00 | 0.00 | 57 | 1006.3 |
| 20260901034508 | 74 | 209 | 0.0 | 0.0 | 0.00 | 0.00 | 0.00 | 55 | 1006.1 |
| 20260901033007 | 76 | 209 | 0.0 | 0.0 | 0.00 | 0.00 | 0.00 | 53 | 1005.9 |
| 20260901031603 | 77 | 209 | 0.0 | 0.0 | 0.00 | 0.00 | 0.00 | 50 | 1005.7 |
| 20260901030045 | 79 | 209 | 0.0 | 0.0 | 0.00 | 0.00 | 0.00 | 47 | 1005.7 |
| 20260901024518 | 80 | 209 | 0.0 | 1.7 | 0.00 | 0.00 | 0.00 | 45 | 1005.7 |
| 20260901023023 | 82 | 209 | 0.0 | 3.5 | 0.00 | 0.00 | 0.00 | 44 | 1005.6 |
| 20260901021556 | 84 | 211 | 2.6 | 6.1 | 0.00 | 0.00 | 0.00 | 40 | 1005.5 |
| 20260901020049 | 86 | 230 | 0.0 | 0.9 | 0.00 | 0.00 | 0.00 | 33 | 1005.5 |
| 20260901014529 | 86 | 230 | 0.0 | 0.0 | 0.00 | 0.00 | 0.00 | 31 | 1005.4 |
| 20260901013037 | 86 | 230 | 0.0 | 1.7 | 0.00 | 0.00 | 0.00 | 30 | 1005.4 |
| 20260901011515 | 86 | 230 | 0.0 | 1.7 | 0.00 | 0.00 | 0.00 | 30 | 1005.6 |
| 20260901010018 | 87 | 230 | 0.9 | 4.3 | 0.00 | 0.00 | 0.00 | 30 | 1005.5 |
| 20260901004552 | 88 | 217 | 0.0 | 4.3 | 0.00 | 0.02 | 0.00 | 32 | 1005.6 |
| 20260901003100 | 89 | 256 | 1.7 | 5.2 | 0.00 | 0.02 | 0.00 | 31 | 1005.6 |
| 20260901001548 | 89 | 234 | 0.0 | 7.8 | 0.00 | 0.02 | 0.00 | 32 | 1005.7 |
| 20260901000032 | 90 | 221 | 0.0 | 6.1 | 0.00 | 0.02 | 0.00 | 32 | 1005.8 |
| 20260831234511 | 89 | 216 | 0.0 | 3.5 | 0.00 | 0.04 | 0.00 | 32 | 1005.8 |
| 20260831233009 | 89 | 216 | 0.0 | 6.1 | 0.00 | 0.04 | 0.00 | 32 | 1005.8 |
| 20260831231557 | 88 | 264 | 0.0 | 4.3 | 0.00 | 0.04 | 0.00 | 33 | 1005.9 |
| 20260831230055 | 88 | 249 | 0.0 | 6.1 | 0.00 | 0.04 | 0.00 | 33 | 1006.1 |
| 20260831224556 | 89 | 207 | 0.9 | 4.3 | 0.00 | 0.08 | 0.00 | 34 | 1006.2 |
| 20260831223052 | 89 | 198 | 0.0 | 6.1 | 0.00 | 0.08 | 0.00 | 34 | 1006.4 |
| 20260831221559 | 88 | 173 | 0.0 | 3.5 | 0.00 | 0.08 | 0.00 | 34 | 1006.5 |
| 20260831220047 | 88 | 175 | 3.5 | 5.2 | 0.00 | 0.08 | 0.00 | 35 | 1006.5 |
| 20260831214553 | 87 | 167 | 0.9 | 5.2 | 0.00 | 0.08 | 0.00 | 35 | 1006.8 |
| 20260831213049 | 85 | 176 | 0.9 | 7.0 | 0.00 | 0.08 | 0.00 | 38 | 1006.9 |
| 20260831211521 | 85 | 225 | 0.9 | 5.2 | 0.00 | 0.08 | 0.00 | 38 | 1007.0 |
| 20260831210021 | 85 | 312 | 0.0 | 5.2 | 0.00 | 0.08 | 0.00 | 38 | 1007.1 |
| 20260831204559 | 84 | 215 | 0.0 | 2.6 | 0.00 | 0.08 | 0.00 | 38 | 1007.3 |
| 20260831203103 | 82 | 153 | 0.0 | 4.3 | 0.00 | 0.08 | 0.00 | 39 | 1007.5 |
| 20260831201535 | 81 | 147 | 0.0 | 3.5 | 0.00 | 0.08 | 0.00 | 41 | 1007.8 |
| 20260831200034 | 80 | 173 | 0.0 | 5.2 | 0.00 | 0.08 | 0.00 | 42 | 1008.0 |
| 20260831194514 | 79 | 80 | 0.9 | 3.5 | 0.00 | 0.08 | 0.00 | 43 | 1008.2 |
| 20260831193009 | 78 | 349 | 0.0 | 4.3 | 0.00 | 0.08 | 0.00 | 45 | 1008.3 |
| 20260831191557 | 77 | 72 | 0.0 | 4.3 | 0.00 | 0.08 | 0.00 | 47 | 1008.5 |
| 20260831190047 | 76 | 63 | 0.0 | 3.5 | 0.00 | 0.08 | 0.00 | 49 | 1008.8 |
| 20260831184522 | 74 | 24 | 0.0 | 6.1 | 0.00 | 0.08 | 0.00 | 54 | 1008.9 |
| 20260831183017 | 73 | 346 | 0.9 | 3.5 | 0.00 | 0.08 | 0.00 | 56 | 1009.1 |
| 20260831181559 | 72 | 349 | 0.0 | 2.6 | 0.00 | 0.08 | 0.00 | 59 | 1009.4 |
| 20260831180055 | 71 | 46 | 0.9 | 4.3 | 0.00 | 0.08 | 0.00 | 59 | 1009.5 |
| 20260831174535 | 70 | 59 | 0.0 | 0.0 | 0.00 | 0.08 | 0.00 | 64 | 1009.7 |
| 20260831173034 | 68 | 58 | 0.0 | 3.5 | 0.00 | 0.08 | 0.00 | 65 | 1009.8 |
| 20260831171516 | 67 | 39 | 0.9 | 3.5 | 0.00 | 0.08 | 0.00 | 67 | 1010.0 |
| 20260831170017 | 66 | 57 | 0.0 | 3.5 | 0.00 | 0.08 | 0.00 | 70 | 1010.1 |
| 20260831164607 | 65 | 43 | 0.0 | 0.0 | 0.00 | 0.08 | 0.00 | 71 | 1010.3 |
| 20260831163057 | 64 | 65 | 0.9 | 4.3 | 0.00 | 0.08 | 0.00 | 73 | 1010.4 |
| 20260831161534 | 63 | 37 | 0.0 | 5.2 | 0.00 | 0.08 | 0.00 | 75 | 1010.4 |
| 20260831160036 | 62 | 26 | 0.9 | 5.2 | 0.00 | 0.08 | 0.00 | 76 | 1010.6 |
| 20260831154516 | 61 | 40 | 0.9 | 5.2 | 0.00 | 0.08 | 0.00 | 78 | 1010.6 |
| 20260831153016 | 60 | 33 | 0.0 | 4.3 | 0.00 | 0.08 | 0.00 | 81 | 1010.6 |
| 20260831151614 | 59 | 18 | 0.0 | 4.3 | 0.00 | 0.08 | 0.00 | 83 | 1010.7 |
| 20260831150106 | 58 | 15 | 0.0 | 0.0 | 0.00 | 0.08 | 0.00 | 84 | 1010.9 |
| 20260831144555 | 57 | 15 | 0.0 | 0.0 | 0.00 | 0.08 | 0.00 | 84 | 1010.8 |
| 20260831143037 | 57 | 15 | 0.0 | 0.9 | 0.00 | 0.08 | 0.00 | 84 | 1010.9 |
| 20260831141537 | 57 | 15 | 0.0 | 0.0 | 0.00 | 0.08 | 0.00 | 83 | 1010.9 |
| 20260831140018 | 57 | 15 | 0.0 | 7.0 | 0.00 | 0.08 | 0.00 | 84 | 1010.9 |
| 20260831134520 | 57 | 19 | 0.0 | 2.6 | 0.00 | 0.08 | 0.00 | 83 | 1010.9 |
| 20260831133058 | 58 | 19 | 0.0 | 0.0 | 0.00 | 0.08 | 0.00 | 82 | 1010.9 |
| 20260831131558 | 58 | 42 | 0.0 | 4.3 | 0.00 | 0.08 | 0.00 | 82 | 1011.1 |
| 20260831130040 | 58 | 39 | 0.9 | 7.0 | 0.00 | 0.08 | 0.00 | 82 | 1011.1 |
| 20260831124552 | 58 | 37 | 0.0 | 3.5 | 0.00 | 0.08 | 0.00 | 81 | 1011.1 |
| 20260831123018 | 58 | 351 | 0.0 | 0.0 | 0.00 | 0.08 | 0.00 | 80 | 1011.2 |
| 20260831121516 | 58 | 351 | 0.0 | 0.0 | 0.00 | 0.08 | 0.00 | 80 | 1011.2 |
| 20260831120056 | 59 | 351 | 0.0 | 0.0 | 0.00 | 0.08 | 0.00 | 79 | 1011.4 |
| 20260831114556 | 59 | 348 | 0.0 | 5.2 | 0.00 | 0.08 | 0.00 | 78 | 1011.5 |
| 20260831113037 | 59 | 12 | 0.0 | 3.5 | 0.00 | 0.08 | 0.00 | 78 | 1011.5 |
| 20260831111536 | 59 | 18 | 0.0 | 3.5 | 0.00 | 0.08 | 0.00 | 78 | 1011.6 |
| 20260831110020 | 59 | 331 | 0.0 | 5.2 | 0.00 | 0.08 | 0.00 | 78 | 1011.7 |
| 20260831104526 | 59 | 355 | 0.0 | 0.0 | 0.00 | 0.08 | 0.00 | 77 | 1011.6 |
| 20260831103105 | 60 | 355 | 0.0 | 0.0 | 0.00 | 0.08 | 0.00 | 76 | 1011.8 |
| 20260831101558 | 60 | 344 | 0.0 | 0.0 | 0.00 | 0.08 | 0.00 | 76 | 1011.9 |
| 20260831100042 | 60 | 342 | 0.0 | 0.0 | 0.00 | 0.08 | 0.00 | 76 | 1012.1 |
| 20260831094533 | 61 | 338 | 0.0 | 0.0 | 0.00 | 0.08 | 0.00 | 76 | 1012.4 |
| 20260831093019 | 61 | 351 | 0.0 | 3.5 | 0.00 | 0.08 | 0.00 | 75 | 1012.5 |
| 20260831091513 | 61 | 347 | 0.0 | 6.1 | 0.00 | 0.08 | 0.00 | 75 | 1012.6 |
| 20260831090101 | 61 | 30 | 0.0 | 2.6 | 0.00 | 0.08 | 0.00 | 75 | 1012.6 |
| 20260831084553 | 62 | 36 | 0.0 | 5.2 | 0.00 | 0.08 | 0.00 | 75 | 1012.7 |
| 20260831083043 | 62 | 39 | 0.0 | 5.2 | 0.00 | 0.08 | 0.00 | 75 | 1012.8 |
| 20260831081535 | 62 | 35 | 0.0 | 2.6 | 0.00 | 0.08 | 0.00 | 75 | 1013.0 |
| 20260831080014 | 62 | 42 | 0.0 | 4.3 | 0.00 | 0.08 | 0.00 | 74 | 1013.1 |
| 20260831074512 | 63 | 40 | 0.0 | 6.1 | 0.00 | 0.08 | 0.00 | 74 | 1013.2 |
| 20260831073058 | 63 | 40 | 0.0 | 8.7 | 0.00 | 0.08 | 0.00 | 74 | 1013.3 |
| 20260831071552 | 63 | 32 | 0.0 | 5.2 | 0.00 | 0.08 | 0.00 | 74 | 1013.4 |
| 20260831070039 | 63 | 28 | 0.0 | 4.3 | 0.00 | 0.08 | 0.00 | 74 | 1013.5 |
| 20260831064536 | 63 | 13 | 0.9 | 2.6 | 0.00 | 0.08 | 0.00 | 74 | 1013.7 |
| 20260831063013 | 63 | 355 | 0.0 | 7.0 | 0.00 | 0.08 | 0.00 | 74 | 1013.8 |
| 20260831061512 | 63 | 351 | 0.9 | 4.3 | 0.00 | 0.08 | 0.00 | 74 | 1013.9 |
| 20260831060058 | 62 | 18 | 0.9 | 6.1 | 0.00 | 0.08 | 0.00 | 76 | 1014.0 |